カタログに戻る

QIANFAN-236

運用中通信PO
NORAD 69865·PAYLOAD·🇨🇳 China

打ち上げ Jul 5, 2026 から Wenchang Space Launch Site

Loading…

次のパス (今後24時間)

TLE

最新Source: Space-Track

元期: Sep 14, 2026, 14:24 UTC

1 69865U 26155T   26257.60008320  .00000011  00000-0 -20204-5 0  9990
2 69865  89.0084  54.3088 0035121  26.9991 333.2981 13.57842794  9931

AllMySatでQIANFAN-236をリアルタイム追跡

Download on the App Store